Weather History for PAQT - May, 2013

Change the Weather History Date:

Monday, May 20, 2013

  Actual Average (PAKU) Record (PAKU)
Temperature  
Mean Temperature 32 °F -  
Max Temperature 34 °F 26 °F 39 °F (2004)
Min Temperature 30 °F 18 °F 0 °F (2000)
Degree Days  
Heating Degree Days 33    
Moisture  
Dew Point 30 °F    
Average Humidity 88    
Maximum Humidity 92    
Minimum Humidity 79    
Precipitation  
Precipitation 0.03 in - - ()
Sea Level Pressure  
Sea Level Pressure 30.43 in    
Wind  
Wind Speed 12 mph (South)    
Max Wind Speed 22 mph    
Max Gust Speed -    
Visibility 10 miles    
Events      
Averages and records for this station are not official NWS values.
T = Trace of Precipitation, MM = Missing Value Source: NWS Daily Summary

Daily Weather History Graph

Daily Weather History Graph

Search for Another Location

Airport or City:

Trip Planner

Search our weather history database for the weather conditions in past years. The results will help you decide how hot, cold, wet, or windy it might be!

Date:

Astronomy

May. 20, 2013 Rise Set
Actual Time 2:32 AM AKDT 1:28 AM AKDT
Civil Twilight Sun does not set Sun does not set
Nautical Twilight Sun does not set Sun does not set
Astronomical Twilight Sun does not set Sun does not set
Moon 5:19 PM AKDT (5/20) 3:23 AM AKDT (5/20)
Length of Visible Light 24h 00m
Length of Day
22h 55m
Waxing Gibbous, 76% of the Moon is Illuminated
May 20
Waxing Gibbous
May 24
Full
May 31
Last Quarter
Jun 8
New
Jun 16
First Quarter

Hourly Weather History & Observations

Time (AKDT) Temp. Windchill Dew Point Humidity Pressure Visibility Wind Dir Wind Speed Gust Speed Precip Events Conditions
12:53 AM 30.9 °F 21.2 °F 27.0 °F 85% 30.37 in 10.0 mi South 12.7 mph - N/A   Overcast
1:53 AM 30.9 °F 21.2 °F 27.0 °F 85% 30.39 in 10.0 mi SSW 12.7 mph - N/A   Overcast
2:53 AM 30.0 °F 19.5 °F 26.1 °F 85% 30.40 in 10.0 mi South 13.8 mph - N/A   Overcast
3:53 AM 32.0 °F 21.2 °F 26.1 °F 79% 30.41 in 10.0 mi SW 16.1 mph - N/A   Overcast
4:53 AM 32.0 °F 20.5 °F 28.0 °F 85% 30.42 in 10.0 mi WSW 18.4 mph - N/A   Overcast
5:53 AM 32.0 °F 19.8 °F 27.0 °F 82% 30.43 in 10.0 mi WSW 20.7 mph - N/A   Overcast
6:53 AM 32.0 °F 19.5 °F 28.0 °F 85% 30.44 in 10.0 mi West 21.9 mph - N/A   Overcast
7:53 AM 33.1 °F 20.9 °F 28.9 °F 85% 30.44 in 10.0 mi West 21.9 mph - 0.01 in   Overcast
8:53 AM 32.0 °F 22.1 °F 30.0 °F 92% 30.45 in 10.0 mi WSW 13.8 mph - 0.02 in   Overcast
9:53 AM 33.1 °F 24.4 °F 30.0 °F 89% 30.46 in 10.0 mi South 11.5 mph - N/A   Overcast
10:53 AM 33.1 °F 23.9 °F 30.9 °F 92% 30.46 in 10.0 mi South 12.7 mph - N/A   Overcast
11:53 AM 33.1 °F 23.9 °F 30.9 °F 92% 30.46 in 10.0 mi SSE 12.7 mph - N/A   Overcast
12:53 PM 34.0 °F 25.0 °F 30.9 °F 89% 30.46 in 10.0 mi SSE 12.7 mph - N/A   Overcast
1:53 PM 34.0 °F 25.5 °F 30.9 °F 89% 30.47 in 10.0 mi SSE 11.5 mph - N/A   Overcast
2:53 PM 34.0 °F 27.2 °F 30.9 °F 89% 30.46 in 10.0 mi SE 8.1 mph - N/A   Overcast
3:53 PM 34.0 °F 27.2 °F 30.0 °F 85% 30.45 in 10.0 mi SSE 8.1 mph - N/A   Overcast
4:53 PM 34.0 °F 26.6 °F 30.0 °F 85% 30.45 in 10.0 mi SSE 9.2 mph - N/A   Mostly Cloudy
5:53 PM 34.0 °F 27.2 °F 30.0 °F 85% 30.44 in 10.0 mi SSE 8.1 mph - N/A   Overcast
6:53 PM 33.1 °F 27.7 °F 30.9 °F 92% 30.43 in 10.0 mi SSE 5.8 mph - N/A   Overcast
7:53 PM 33.1 °F 27.7 °F 30.9 °F 92% 30.43 in 10.0 mi SSE 5.8 mph - N/A   Overcast
8:53 PM 34.0 °F - 30.9 °F 89% 30.42 in 10.0 mi Calm Calm - N/A   Overcast
9:53 PM 33.1 °F 30.0 °F 30.9 °F 92% 30.41 in 10.0 mi ESE 3.5 mph - N/A   Overcast
10:53 PM 33.1 °F - 30.9 °F 92% 30.40 in 10.0 mi Calm Calm - N/A   Overcast
11:53 PM 33.1 °F - 30.9 °F 92% 30.40 in 10.0 mi Calm Calm - N/A   Overcast